Погода в Челутае

Россия / Забайкальский край     51°13′11″N   114°22′17″E
темп.,
°C
ветер,
м/с
пор.,
м/с
влажн.,
%
обл.,
%
осадки,
мм/ч
давл.,
гПа
погр.,
м
5 декабря, вс
вс500:00−4зсз61556100 0.0 1011449
03:00−4зсз81965100 0.0 1012746
06:00−5зсз8177039 0.0 1013863
09:00−6сз716715 0.0 1016834
12:00−4сз916675 0.0 10171072
15:00−3сз917585 0.0 10171537
18:00−6зсз815715 0.0 10211030
21:00−8зсз815645 0.0 1024956
6 декабря, пн
пн600:00−10зсз816695 0.0 1026895
03:00−10зсз616765 0.0 1027714
06:00−10зсз413741 0.0 1027454
09:00−11зюз38795 0.0 1026195
12:00−5зюз4125973 0.0 1023523
15:00−1з5144792 0.0 1018678
18:00−5з412580 0.0 1019252
21:00−5з514555 0.0 1019303
7 декабря, вт
вт700:00−4з515490 0.0 1019338
03:00−3з616495 0.0 1020364
06:00−4з413481 0.0 1021234
09:00−5з310505 0.0 1023163
12:000з311415 0.0 1023329
15:00+1з26465 0.0 1021256
18:00−7юз11735 0.0 102410
21:00−8ю117923 0.0 102512
8 декабря, ср
ср800:00−10юв11805 0.0 102514
03:00−12юв21865 0.0 102422
06:00−13вюв219571 0.0 102323
09:00−13вюв2292100 0.0 102139
12:00−11юв2378100 0.0 1019161
15:00−9ююв1173100 0.0 1016136
18:00−10юз0087100 0.0 101711
21:00−9сз1293100 0.6 1016108
9 декабря, чт
чт900:00−7сз61575100 0.1 1016549
03:00−6сз9175999 0.1 1018764
06:00−9сз917664 0.0 1022703
09:00−11сз816650 0.0 1026587
12:00−10зсз712600 0.0 1028656
15:00−8зсз6115632 0.0 1029739
18:00−11зсз4116769 0.0 1031272
21:00−13зсз2577100 0.0 103475